Flag for Russia Weather past 2 weeks in Syktyvkar, Russia

Now
55 °F

Partly sunny.


Feels Like: 53 °F
Forecast: 48 / 60 °F
Wind: 8 mph from North

Location: Syktyvkar Airport

Current Time: Jul 2, 2015 at 9:28:17 PM

Latest Report: Jul 2, 2015 at 9:00 PM


Visibility: N/A

Pressure: 29.98 "Hg

Humidity: 59%

Dew point: 41 °F

Location of SyktyvkarLocation

Historic Weather in Syktyvkar — Graph

°F

Syktyvkar temperature yesterday

Maximum temperature yesterday: 75 °F (at 4:30 PM)
Minimum temperature yesterday: 54 °F (at 1:30 AM)
Average temperature yesterday: 66 °F

Past Weeks' High & Low Weather Summary

 TemperatureHumidityPressure
High86 °F (Jun 22, 1:30 PM)100% (Jun 21, 4:00 AM)30.15 "Hg (Jun 21, 4:00 AM)
Low41 °F (Jun 19, 2:00 AM)30% (Jun 19, 3:00 PM)29.65 "Hg (Jun 28, 4:00 AM)
Average66 °F70%29.90 "Hg
* Reported Jun 17 8:00 PM — Jul 2 8:00 PM, Syktyvkar, Weather by CustomWeather, © 2015

Note: Actual official high and low records may vary slightly from our data, if they occured in-between our weather recording intervals... More about our weather records

Advertising

Syktyvkar weather history for previous 24 hours

 ConditionsComfort  
Time TempWeatherWind HumidityBarometerVisibility
8:00 PM
Thu, Jul 2
55 °FScattered clouds.6 mph63%29.98 "HgN/A
7:30 PM55 °FScattered clouds.8 mph67%29.95 "HgN/A
7:00 PM57 °FPartly sunny.13 mph63%29.95 "HgN/A
6:30 PM57 °FPartly sunny.10 mph63%29.95 "HgN/A
6:00 PM59 °FPartly sunny.13 mph59%29.95 "HgN/A
5:30 PM61 °FPassing clouds.8 mph55%29.92 "HgN/A
5:00 PM59 °FPassing clouds.6 mph63%29.92 "HgN/A
4:30 PM59 °FPassing clouds.10 mph59%29.92 "HgN/A
4:00 PM61 °FPassing clouds.10 mph55%29.92 "HgN/A
3:30 PM63 °FScattered clouds.10 mph56%29.89 "HgN/A
3:00 PM64 °FScattered clouds.8 mph49%29.89 "HgN/A
2:30 PM64 °FScattered clouds.6 mph49%29.89 "HgN/A
2:00 PM63 °FPartly sunny.8 mph52%29.89 "HgN/A
1:30 PM61 °FPartly sunny.8 mph59%29.89 "HgN/A
1:00 PM61 °FPartly sunny.8 mph59%29.89 "HgN/A
12:30 PM63 °FPartly sunny.8 mph52%29.89 "HgN/A
12:00 PM63 °FScattered clouds.10 mph52%29.89 "HgN/A
11:30 AM66 °FPassing clouds.6 mph49%29.89 "HgN/A
11:00 AM68 °FPassing clouds.6 mph46%29.89 "HgN/A
10:30 AM68 °FPassing clouds.10 mph46%29.89 "HgN/A
10:00 AM68 °FPassing clouds.3 mph43%29.89 "HgN/A
9:30 AM68 °FSunny.8 mph46%29.89 "Hg10 mi
9:00 AM68 °FPassing clouds.3 mph46%29.86 "HgN/A
8:30 AM68 °FSunny.6 mph46%29.86 "Hg10 mi
8:00 AM66 °FSunny.8 mph49%29.86 "Hg10 mi
7:30 AM64 °FSunny.6 mph56%29.86 "Hg10 mi
7:00 AM63 °FSunny.6 mph59%29.86 "Hg10 mi
6:00 AM59 °FSunny.6 mph63%29.89 "Hg10 mi
5:30 AM59 °FSunny.6 mph63%29.89 "Hg10 mi
5:00 AM57 °FSunny.3 mph67%29.89 "Hg10 mi
4:30 AM55 °FSunny.6 mph72%29.89 "Hg10 mi
4:00 AM55 °FSunny.6 mph72%29.89 "Hg10 mi
3:30 AM55 °FSunny.6 mph72%29.89 "Hg10 mi
3:00 AM55 °FSunny.6 mph77%29.89 "Hg10 mi
2:30 AM55 °FClear.8 mph77%29.89 "Hg10 mi
2:00 AM55 °FClear.8 mph77%29.89 "Hg10 mi
1:30 AM57 °FClear.8 mph77%29.89 "Hg10 mi
12:30 AM59 °FClear.8 mph72%29.89 "Hg10 mi
12:00 AM59 °FClear.8 mph72%29.89 "Hg10 mi
11:30 PM
Wed, Jul 1
59 °FClear.6 mph77%29.89 "Hg10 mi
11:00 PM61 °FClear.6 mph72%29.89 "Hg10 mi
10:30 PM61 °FClear.6 mph72%29.89 "Hg10 mi
10:00 PM63 °FSunny.6 mph68%29.89 "Hg10 mi
9:30 PM64 °FSunny.6 mph68%29.89 "Hg10 mi
9:00 PM66 °FSunny.6 mph64%29.89 "Hg10 mi
Weather by CustomWeather, © 2015

See weather overviewHow to use our weather pages